427  
ASUS41 KALY 270710  
RWRALY  
 
NEW YORK STATE HOURLY WEATHER ROUNDUP  
NATIONAL WEATHER SERVICE ALBANY NY  
300 AM EDT FRI APR 27 2018  
 
NOTE: "FAIR" INDICATES FEW OR NO CLOUDS BELOW 12,000 FEET WITH NO  
SIGNIFICANT WEATHER AND/OR NO S TO VISIBILITY
.  
 
NYZ032-033-038>043-046>054-057>066-NYZ062>081-082-084-270800-  
EAST  
 
 
CITY SKY/WX TMP DP RH WIND PRES REMARKS
 
ALBANY MOCLDY 39 36 89 CALM 29.88F  
GLENS FALLS FAIR 37 36 96 CALM 29.86F  
POUGHKEEPSIE FAIR 43 39 86 SE3 29.87F  
NEWBURGH CLEAR 46 43 87 CALM 29.88F  
MONTGOMERY FAIR 46 41 82 N5 29.86F  
WHITE PLAINS FAIR 49 42 77 CALM 29.86S  
ISLIP FAIR 49 46 90 CALM 29.87F  
NEW YORK CITY MOCLDY 56 42 59 E5 29.85F  
CENTRAL PARK FAIR 58 41 53 NE5 29.88F  

 
 
NYZ005>009-017-018-044>046-055-056-270800-  
CENTRAL  
 
 
CITY SKY/WX TMP DP RH WIND PRES REMARKS
 
FULTON FAIR 34 32 92 SE5 29.83F WCI 30  
SYRACUSE FAIR 35 35 100 E6 29.84F WCI 30  
ROME FAIR 35 34 96 E3 29.87F  
ELMIRA FAIR 39 35 86 CALM 29.84F  
BINGHAMTON FAIR 44 33 65 E3 29.83F  

 
 
NYZ026>034-041>043-087-270800-  
NORTH  
 
 
CITY SKY/WX TMP DP RH WIND PRES REMARKS
 
WATERTOWN FAIR 37 34 89 S3 29.83F  
FORT DRUM NOT AVBL  
OGDENSBURG FAIR 40 37 91 S5 29.82F  
MASSENA FAIR 42 38 85 SW9 29.83S  
SARANAC LAKE FAIR 36 35 96 CALM 29.81F FOG  
PLATTSBURGH CLOUDY 47 43 86 VRB3 29.83R  

 
 
NYZ001>004-010>016-019>021-085-270800-  
WEST  
 
 
CITY SKY/WX TMP DP RH WIND PRES REMARKS
 
NIAGARA FALLS FAIR 40 33 76 CALM 29.81F  
BUFFALO MOCLDY 39 33 79 S3 29.81F  
DUNKIRK FAIR 33 31 92 S5 29.81F WCI 29  
JAMESTOWN FAIR 40 30 67 S3 29.81F  
WELLSVILLE FAIR 42 31 64 CALM 29.82F  
ROCHESTER MOCLDY 39 36 89 SW5 29.82F  
PENN YAN FAIR 42 34 73 SW7 29.83F  

 
 
KEY  
WCI = WIND CHILL INDEX  
VSB = VISIBILITY  
HX = HEAT INDEX  

 
 
 
CLICK HERE TO GO TO PREVIOUS BULLETINS.

The Nexlab NY Page
The Nexlab VT Page
The Nexlab MA Page
The Nexlab CT Page Main Text Page